Overview Statistics Trail Chart Weather Telemetry Raw packets
 

This is the latest recevied weather packets stored in our database for station/object KC9DRE. If no packets are shown the sender has not sent any weather packets the latest 10 day(s).

<< 51 52 53 54 55 56 57 >>
Time Temp. Humidity Pressure Rain* Wind** Luminosity Snow
1777589111 16.67° C 40% 1015.5 hPa 0 mm - 165 W/m² -
1777588807 17.22° C 38% 1015.5 hPa 0 mm - 180 W/m² -
1777588503 17.78° C 35% 1015.4 hPa 0 mm - 195 W/m² -
1777588198 17.78° C 36% 1015.6 hPa 0 mm - 212 W/m² -
1777587894 17.78° C 38% 1015.2 hPa 0 mm - 177 W/m² -
1777587589 17.78° C 37% 1015.6 hPa 0 mm - 244 W/m² -
1777587285 17.22° C 38% 1015.6 hPa 0 mm - 263 W/m² -
1777586981 16.67° C 38% 1015.7 hPa 0 mm - 279 W/m² -
1777586677 16.67° C 37% 1015.4 hPa 0 mm - 297 W/m² -
1777586372 16.67° C 37% 1015.4 hPa 0 mm - 322 W/m² -
1777586071 16.67° C 37% 1015.6 hPa 0 mm - 160 W/m² -
1777585770 16.67° C 37% 1015.7 hPa 0 mm - 362 W/m² -
1777585465 16.11° C 40% 1015.5 hPa 0 mm - 386 W/m² -
1777585161 16.67° C 39% 1015.5 hPa 0 mm - 84 W/m² -
1777584856 16.67° C 37% 1015.6 hPa 0 mm - 190 W/m² -
1777584554 16.67° C 40% 1015.9 hPa 0 mm - 429 W/m² -
1777584251 17.22° C 38% 1015.7 hPa 0 mm - 452 W/m² -
1777583950 17.22° C 37% 1015.8 hPa 0 mm - 500 W/m² -
1777583647 17.78° C 37% 1016.2 hPa 0 mm - 515 W/m² -
1777583345 16.67° C 41% 1015.8 hPa 0 mm - 520 W/m² -
1777583040 16.67° C 40% 1016.1 hPa 0 mm - 297 W/m² -
1777582737 16.11° C 39% 1016.1 hPa 0 mm - 538 W/m² -
1777582432 16.67° C 41% 1016.1 hPa 0 mm - 145 W/m² -
1777582127 16.67° C 41% 1016.2 hPa 0 mm - 566 W/m² -
1777581821 17.22° C 39% 1016.3 hPa 0 mm - 282 W/m² -

* Rain latest hour (hover to see other rain measurements)
** Current wind speed in m/s (hover to see current wind gust speed)